Location: Newark
(49.8969°N, 3.3422°E)
Time: 15:15:38
(UTC+00:00)

deb Explorer IX - Pass Details

Date: 28 January 2020
Orbit: 549 x 1099 km, 38.8° (Epoch: 17 February)

Event Time Altitude Azimuth Distance (km) Brightness Sun altitude
Rises 01:43:39 0° 266° (W) 3,906 - -52.2°
Reaches altitude 10° 01:47:31 10° 247° (WSW) 2,946 - -51.8°
Maximum altitude 01:51:46 17° 211° (SSW) 2,450 - -51.3°
Drops below altitude 10° 01:55:55 10° 175° (S) 2,849 - -50.8°
Sets 01:59:35 0° 156° (SSE) 3,720 - -50.4°
